[[{"header":{"parameterUnit":"m.s-1","parameterCategory":1,"la1":30.2991,"la2":30.254,"lo1":-89.0895,"lo2":-89.0444,"dy":0.0017,"dx":0.0017,"nx":28,"ny":28,"refTime":"2024-06-17T21:00:00:Z","depth":0,"parameterNumber":2,"parameterNumberName":"U-component_of_WINDS"},"data":[0,0,0,0,0,0,0,0,0,0,0,0,0,0,0,0,0,0,0,0,0,0,0,0,0,0,0,0,0,0,0,0,0,0,0,0,0,0,0,0,0,0,0,0,0,0,0,0,0,0,0,0,0,0,0,0,0,0,-5.026,-5.026,0,-5.0233,-5.0232,-5.0232,-5.0041,-5.0036,-5.0032,-5.0027,-5.0003,-5.0007,-5.001,0,0,0,0,0,0,0,0,0,0,0,0,0,-5.015,-5.0154,-5.026,-5.026,-5.0259,-5.0233,-5.0232,-5.0232,-5.0042,-5.0036,-5.003,-5.0025,-5.0002,-5.0006,-5.0011,0,0,0,0,0,0,0,0,0,0,0,0,0,-5.0168,-5.0155,-5.026,-5.0161,-5.0152,-5.0233,-5.0232,-5.0232,-5.0043,-5.0036,-5.0029,-5.0022,-5.0,-5.0006,-5.0011,-5.0186,0,0,-5.0028,-5.0031,0,0,0,0,0,0,0,0,-5.0168,-5.0173,-5.0176,-5.0168,-5.0158,-5.0133,-5.0184,-5.0217,-5.0045,-5.0085,-5.0027,-5.0019,-5.0052,-5.0053,-5.0063,-5.0185,-5.0184,-5.0029,-5.0032,-5.0035,-5.0036,0,0,0,0,0,0,0,-5.0167,-5.0173,-5.0249,-5.0176,-5.0165,-5.0119,-5.0114,-5.019,-5.0108,-5.0081,-5.0067,-5.0066,-5.0046,-5.0059,-5.0061,-5.0184,-5.0029,-5.0034,-5.0037,-5.0039,-5.0444,-5.0451,0,0,0,0,0,0,-5.0179,-5.0173,-5.025,-5.0248,-5.0145,-5.0127,-5.0121,-5.0148,-5.0107,-5.0094,-5.0072,-5.0057,-5.0052,-5.0055,-5.006,-5.0259,-5.0035,-5.004,-5.0043,-5.0437,-5.0446,-5.0454,0,0,0,0,0,0,-5.0177,-5.0187,-5.0251,-5.0207,-5.0211,-5.0136,-5.0168,-5.0151,-5.0163,-5.01,-5.0085,-5.0099,-5.0047,-5.0052,-5.0155,-5.0255,-5.0042,-5.0047,-5.0428,-5.044,-5.045,-5.0661,0,0,0,0,0,0,-5.0175,-5.0188,-5.0253,-5.021,-5.0215,-5.0347,-5.0175,-5.0156,-5.0173,-5.0154,-5.0122,-5.011,-5.0042,-5.0148,-5.0161,-5.0259,-5.0052,-5.0419,-5.0433,-5.0446,-5.0644,-5.0677,-5.0706,0,0,0,0,0,-5.0172,-5.0315,-5.0257,-5.0268,-5.0294,-5.0353,-5.0356,-5.0273,-5.0182,-5.0247,-5.0206,-5.0111,-5.0243,-5.016,-5.0173,-5.0275,-5.0412,-5.0429,-5.0445,-5.063,-5.0671,-5.0705,0,0,0,0,0,0,-5.0374,-5.0308,-5.0243,-5.0377,-5.0372,-5.0321,-5.04,-5.0319,-5.0341,-5.0322,-5.022,-5.0215,-5.0333,-5.0314,-5.0223,-5.044,-5.0311,-5.0331,-5.0447,-5.0485,-5.0516,-5.0517,-5.0056,0,0,0,0,0,-5.0434,-5.0487,-5.0426,-5.055,-5.0551,-5.0477,-5.0499,-5.0436,-5.0427,-5.0424,-5.0391,-5.0387,-5.0427,-5.0456,-5.0489,-5.0642,-5.0631,-5.0718,-5.0749,-5.0775,-5.0792,-5.0869,-5.0906,-5.0509,-5.0508,-5.0508,0,0,-5.0559,-5.0529,-5.0569,-5.059,-5.0578,-5.0635,-5.0476,-5.0543,-5.0584,-5.0435,-5.0528,-5.0505,-5.0494,-5.0621,-5.0676,-5.0609,-5.09,-5.0796,-5.0817,-5.082,-5.089,-5.0927,-5.0961,-5.052,-5.0518,-5.0516,0,0,-5.0815,-5.0799,-5.0898,-5.0889,-5.0873,-5.0823,-5.0847,-5.0808,-5.0786,-5.0878,-5.0767,-5.0815,-5.0887,-5.0882,-5.089,-5.1143,-5.1056,-5.1158,-5.1318,-5.1394,-5.1425,-5.1452,-5.154,-5.1573,-5.1176,-5.1177,-5.1177,0,-5.0972,-5.1051,-5.096,-5.1033,-5.1045,-5.0911,-5.1011,-5.1008,-5.1005,-5.1017,-5.0943,-5.1028,-5.1012,-5.1135,-5.1197,-5.1209,-5.1232,-5.1159,-5.1428,-5.1454,-5.1478,-5.156,-5.1594,-5.1189,-5.1187,-5.1186,-5.1185,0,-5.1244,-5.1301,-5.1384,-5.1381,-5.1403,-5.149,-5.1412,-5.1445,-5.138,-5.1338,-5.1433,-5.1409,-5.1434,-5.1459,-5.1398,-5.1574,-5.1533,-5.1445,-5.1313,-5.1529,-5.1605,-5.1636,-5.1206,-5.1202,-5.1198,-5.1195,0,0,-5.1625,-5.157,-5.1602,-5.1597,-5.157,-5.1613,-5.1694,-5.1716,-5.1745,-5.1749,-5.1813,-5.1877,-5.1794,-5.1803,-5.174,-5.1807,-5.2006,-5.171,-5.1709,-5.1764,-5.2196,-5.2259,-5.2297,-5.1949,-5.1955,-5.196,-5.2195,0,-5.1868,-5.1999,-5.1919,-5.2064,-5.2114,-5.1988,-5.2058,-5.2049,-5.2012,-5.205,-5.2009,-5.2055,-5.1945,-5.1948,-5.201,-5.1969,-5.2091,-5.1951,-5.2007,-5.201,-5.201,-5.2337,-5.2405,-5.2629,-5.2225,-5.223,-5.2233,0,-5.2167,-5.218,-5.2329,-5.2289,-5.2307,-5.2372,-5.2384,-5.2423,-5.2411,-5.2379,-5.2388,-5.2308,-5.2385,-5.2257,-5.236,-5.2267,-5.2285,-5.2269,-5.2276,-5.2275,-5.2133,-5.2343,-5.2698,-5.2731,-5.228,-5.2276,-5.2272,0,-5.2426,-5.2482,-5.2576,-5.2578,-5.2535,-5.2582,-5.2567,-5.2547,-5.2565,-5.2578,-5.2588,-5.2612,-5.2624,-5.2643,-5.2572,-5.2485,-5.2684,-5.255,-5.2659,-5.2661,-5.2704,-5.2701,-5.3064,-5.2722,-5.2722,-5.2721,-5.272,0,-5.2703,-5.2798,-5.2691,-5.275,-5.2853,-5.276,-5.2865,-5.2837,-5.282,-5.2871,-5.2766,-5.2816,-5.272,-5.2761,-5.2706,-5.2799,-5.2806,-5.2782,-5.2765,-5.2789,-5.2792,-5.2797,-5.2779,-5.273,-5.2728,-5.2726,-5.2725,0,-5.3008,-5.2941,-5.3035,-5.2986,-5.2976,-5.3054,-5.3012,-5.3064,-5.302,-5.3086,-5.3096,-5.3027,-5.307,-5.3001,-5.3037,-5.2999,-5.3127,-5.3089,-5.313,-5.3118,-5.3229,-5.3218,-5.3605,-5.365,-5.3283,-5.3287,-5.329,0,-5.3187,-5.3257,-5.3215,-5.324,-5.323,-5.3273,-5.329,-5.3203,-5.3225,-5.3215,-5.3269,-5.3302,-5.3323,-5.3398,-5.3351,-5.3378,-5.3337,-5.3471,-5.334,-5.3361,-5.3335,-5.333,-5.3336,-5.3497,-5.3502,-5.3505,-5.3508,0,-5.3512,-5.3474,-5.3502,-5.3518,-5.3541,-5.3551,-5.3552,-5.358,-5.3487,-5.3518,-5.3559,-5.3576,-5.361,-5.3644,-5.3659,-5.3644,-5.3561,-5.355,-5.3576,-5.3599,-5.3619,-5.3606,-5.32,-5.3541,-5.3537,-5.3535,-5.3533,-5.3532,-5.3756,-5.3811,-5.3789,-5.3823,-5.3815,-5.3819,-5.3864,-5.3825,-5.3857,-5.3876,-5.3824,-5.3877,-5.3862,-5.3872,-5.3867,-5.3907,-5.3848,-5.3887,-5.3896,-5.3906,-5.3922,-5.3616,-5.3911,-5.3909,-5.3909,-5.3908,-5.3907,0,-5.4072,-5.4051,-5.4084,-5.4087,-5.4115,-5.4033,-5.4031,-5.4059,-5.4106,-5.4098,-5.4121,-5.4168,-5.42,-5.4157,-5.4181,-5.4222,-5.4185,-5.4232,-5.4226,-5.4223,-5.3975,-5.3948,-5.4261,-5.4261,-5.4261,-5.4261,-5.4261,-5.4261,-5.4239,-5.4326,-5.4287,-5.4369,-5.4348,-5.4397,-5.4402,-5.4405,-5.4398,-5.4453,-5.4479,-5.445,-5.4428,-5.445,-5.4476,-5.4462,-5.4475,-5.4535,-5.4508,-5.4276,-5.4241,-5.4208,-5.4182,-5.4539,-5.454,-5.4752,-5.4754,-5.4756]},{"header":{"parameterUnit":"m.s-1","parameterCategory":1,"la1":30.2991,"la2":30.254,"lo1":-89.0895,"lo2":-89.0444,"dy":0.0017,"dx":0.0017,"nx":28,"ny":28,"refTime":"2024-06-17T21:00:00:Z","depth":0,"parameterNumber":3,"parameterNumberName":"V-component_of_WINDS"},"data":[0,0,0,0,0,0,0,0,0,0,0,0,0,0,0,0,0,0,0,0,0,0,0,0,0,0,0,0,0,0,0,0,0,0,0,0,0,0,0,0,0,0,0,0,0,0,0,0,0,0,0,0,0,0,0,0,0,0,0.3971,0.397,0,0.3896,0.3895,0.3894,0.377,0.3768,0.3766,0.3764,0.3689,0.3689,0.3689,0,0,0,0,0,0,0,0,0,0,0,0,0,0.4013,0.4013,0.3971,0.397,0.3969,0.3896,0.3895,0.3894,0.3771,0.3768,0.3765,0.3763,0.3689,0.3689,0.3689,0,0,0,0,0,0,0,0,0,0,0,0,0,0.3972,0.4013,0.3971,0.3899,0.3892,0.3896,0.3895,0.3893,0.3771,0.3768,0.3764,0.3761,0.3689,0.3689,0.3689,0.3759,0,0,0.369,0.369,0,0,0,0,0,0,0,0,0.3975,0.3971,0.3911,0.3904,0.3896,0.3839,0.3882,0.3848,0.3772,0.3817,0.3764,0.376,0.3742,0.3738,0.3731,0.3755,0.3752,0.369,0.369,0.369,0.369,0,0,0,0,0,0,0,0.3978,0.3973,0.3941,0.391,0.3901,0.3872,0.3862,0.3875,0.38,0.3813,0.3804,0.3796,0.3737,0.3731,0.3728,0.3751,0.369,0.369,0.369,0.369,0.3831,0.3835,0,0,0,0,0,0,0.3991,0.3976,0.3944,0.3939,0.3928,0.3874,0.3863,0.3861,0.3799,0.3786,0.3799,0.3791,0.3732,0.3728,0.3725,0.3804,0.369,0.369,0.3691,0.3828,0.3832,0.3836,0,0,0,0,0,0,0.3992,0.3989,0.3947,0.3955,0.3948,0.3877,0.3875,0.3861,0.3854,0.3789,0.3775,0.3807,0.3729,0.3725,0.3752,0.3799,0.3691,0.3691,0.3823,0.3829,0.3834,0.3961,0,0,0,0,0,0,0.3994,0.399,0.4015,0.3957,0.3948,0.3974,0.3878,0.3862,0.3855,0.3843,0.3792,0.378,0.3726,0.3752,0.3752,0.3798,0.3691,0.3819,0.3826,0.3832,0.3953,0.397,0.3986,0,0,0,0,0,0.3996,0.4054,0.4017,0.4013,0.3977,0.3977,0.3972,0.3908,0.3859,0.3884,0.3842,0.3782,0.3794,0.3756,0.3755,0.3801,0.3815,0.3824,0.3832,0.3945,0.3967,0.3985,0,0,0,0,0,0,0.412,0.4045,0.4003,0.4043,0.4018,0.3956,0.3985,0.3933,0.392,0.391,0.3832,0.3821,0.3859,0.3832,0.3791,0.3866,0.3796,0.3804,0.3882,0.3902,0.3919,0.3925,0.3691,0,0,0,0,0,0.4152,0.4157,0.4091,0.4134,0.4123,0.4057,0.4054,0.4007,0.3978,0.3966,0.3926,0.39,0.3898,0.3899,0.3893,0.3948,0.3936,0.398,0.3996,0.401,0.4019,0.4048,0.4067,0.3863,0.3862,0.3862,0,0,0.4218,0.4178,0.4186,0.4158,0.4132,0.4141,0.4048,0.4061,0.4067,0.3968,0.3991,0.3961,0.3928,0.3969,0.3986,0.3949,0.4073,0.4021,0.4032,0.4033,0.4058,0.4078,0.4095,0.3868,0.3867,0.3866,0,0,0.4344,0.4313,0.4346,0.4322,0.4284,0.424,0.4249,0.4195,0.4171,0.4193,0.412,0.4127,0.4124,0.4104,0.4093,0.4214,0.4158,0.4214,0.4301,0.433,0.4347,0.436,0.4405,0.4422,0.4222,0.4223,0.4223,0,0.4432,0.444,0.437,0.4387,0.4378,0.4289,0.4323,0.4303,0.4266,0.4263,0.4221,0.4218,0.4189,0.4225,0.4255,0.4249,0.4257,0.422,0.435,0.4363,0.4375,0.4417,0.4434,0.423,0.4229,0.4228,0.4228,0,0.4551,0.4558,0.459,0.4556,0.455,0.4576,0.4511,0.4514,0.4468,0.4429,0.4453,0.4415,0.4402,0.4407,0.4362,0.4438,0.4416,0.4364,0.4291,0.4403,0.4441,0.4456,0.424,0.4238,0.4235,0.4234,0,0,0.4752,0.468,0.4693,0.4677,0.4629,0.4634,0.4657,0.4643,0.4648,0.4626,0.4644,0.4645,0.4596,0.4585,0.4537,0.4563,0.4663,0.4507,0.4505,0.4539,0.4747,0.4788,0.4807,0.4626,0.4628,0.4631,0.475,0,0.4869,0.4902,0.484,0.4889,0.4896,0.4813,0.4833,0.4807,0.4771,0.4773,0.4734,0.4737,0.4672,0.4664,0.4686,0.4646,0.4704,0.4637,0.4644,0.4645,0.4656,0.4826,0.4869,0.4983,0.4764,0.4767,0.4768,0,0.5009,0.4994,0.5044,0.4995,0.4995,0.5014,0.4998,0.5,0.497,0.4942,0.493,0.4874,0.4895,0.4825,0.4853,0.4809,0.4808,0.4789,0.4792,0.4791,0.4714,0.4832,0.5018,0.5036,0.4791,0.4789,0.4787,0,0.5153,0.5145,0.5174,0.5163,0.5106,0.5122,0.5099,0.5065,0.5062,0.5047,0.5045,0.5033,0.5028,0.5021,0.4964,0.4918,0.5001,0.4925,0.498,0.4982,0.5002,0.5001,0.5192,0.5,0.4999,0.4999,0.4999,0,0.529,0.5325,0.5238,0.5256,0.5293,0.5222,0.5261,0.5229,0.5201,0.5212,0.5139,0.5152,0.5076,0.5081,0.5037,0.5069,0.5066,0.5046,0.5034,0.5053,0.5056,0.5052,0.5044,0.5004,0.5003,0.5002,0.5001,0,0.5457,0.54,0.5427,0.5371,0.5358,0.5388,0.5341,0.5356,0.5317,0.5333,0.5333,0.5271,0.5274,0.5216,0.5207,0.5178,0.523,0.5203,0.524,0.5232,0.5291,0.5287,0.5487,0.551,0.5302,0.5304,0.5306,0,0.5549,0.5573,0.5521,0.5523,0.5504,0.5509,0.5505,0.5437,0.5436,0.5404,0.5424,0.5421,0.5414,0.5423,0.5378,0.5372,0.5345,0.5416,0.5344,0.5363,0.5348,0.5348,0.5351,0.5432,0.5434,0.5436,0.5438,0,0.5719,0.569,0.5686,0.5674,0.5671,0.5658,0.564,0.5647,0.5573,0.5576,0.5577,0.5573,0.5564,0.5562,0.5548,0.5526,0.5471,0.5461,0.5474,0.5494,0.5515,0.5506,0.5283,0.5457,0.5455,0.5454,0.5453,0.5452,0.5852,0.587,0.5837,0.5836,0.5815,0.5801,0.5813,0.5775,0.5775,0.5762,0.5723,0.5732,0.5703,0.5677,0.5661,0.5668,0.5633,0.5651,0.5656,0.5662,0.5674,0.5513,0.5665,0.5664,0.5664,0.5663,0.5663,0,0.6019,0.5994,0.5993,0.5971,0.5971,0.5918,0.5897,0.5901,0.5909,0.5886,0.5882,0.5885,0.5883,0.5839,0.5833,0.5847,0.5822,0.5848,0.5847,0.5843,0.5704,0.5694,0.5869,0.5869,0.5869,0.5869,0.5869,0.5868,0.6106,0.6135,0.6103,0.6122,0.6096,0.6104,0.6097,0.6084,0.6065,0.6072,0.607,0.6041,0.601,0.6001,0.5998,0.5985,0.5987,0.6022,0.6002,0.5873,0.5853,0.5834,0.5824,0.6023,0.6023,0.614,0.6141,0.6142]}]]